This demonstration page uses our WeatherBlox Daily Observations layout. Learn more.

Left ArrowRight Arrow

Hourly Observations for July 19, 2016

Temp ( °F °C ) Dew Point ( °F °C ) Humidity (%) Winds ( mph kmh ) Pressure ( in mb ) Visibility ( mi km ) Precip ( " mm )
12:53 am 00:53 Clear 76 24.4 71 21.7 85 85 NNE 3 6 30.16 1022 10 16 0.00 0.00
1:53 am 01:53 Clear 77 25 71 21.7 82 82 Calm 30.16 1021 10 16 0.00 0.00
2:53 am 02:53 Clear 74 23.3 70 21.1 88 88 Calm 30.16 1022 10 16 0.00 0.00
3:53 am 03:53 Clear 74 23.3 70 21.1 88 88 Calm 30.16 1021 10 16 0.00 0.00
4:53 am 04:53 Mostly Cloudy 75 23.9 70 21.1 84 84 Calm 30.17 1022 10 16 0.00 0.00
5:53 am 05:53 Mostly Clear 74 23.3 70 21.1 88 88 Calm 30.17 1022 10 16 0.00 0.00
6:53 am 06:53 Sunny 73 22.8 70 21.1 90 90 Calm 30.18 1022 10 16 0.00 0.00
7:53 am 07:53 Sunny 75 23.9 71 21.7 88 88 Calm 30.19 1022 10 16 0.00 0.00
8:53 am 08:53 Sunny 80 26.7 71 21.7 74 74 SW 5 7 30.21 1023 10 16 0.00 0.00
9:53 am 09:53 Sunny 83 28.3 71 21.7 67 67 W 3 6 30.22 1023 10 16 0.00 0.00
10:53 am 10:53 Sunny 89 31.7 71 21.7 55 55 VRB 5 7 30.22 1023 10 16 0.00 0.00
11:53 am 11:53 Sunny 90 32.2 71 21.7 54 54 VRB 5 7 30.21 1023 10 16 0.00 0.00
12:53 pm 12:53 Sunny 93 33.9 69 20.6 46 46 VRB 6 9 30.18 1022 10 16 0.00 0.00
1:53 pm 13:53 Sunny 94 34.4 66 18.9 40 40 VRB 6 9 30.15 1021 10 16 0.00 0.00
2:53 pm 14:53 Mostly Cloudy 94 34.4 68 20 43 43 undefined N/A 30.14 1021 10 16 0.00 0.00
3:53 pm 15:53 Sunny 96 35.6 65 18.3 36 36 E 7 11 30.11 1020 10 16 0.00 0.00
4:53 pm 16:53 Mostly Sunny 98 36.7 64 17.8 33 33 ENE 7 11 30.08 1019 10 16 0.00 0.00
5:53 pm 17:53 Partly Cloudy 95 35 65 18.3 37 37 ESE 6 9 30.08 1019 10 16 0.00 0.00
6:12 pm 18:12 Partly Cloudy with Nearby Thunderstorms 91 33 70 21 49 49 S 10 17 30.06 1018 10 16 0.00 0.00
6:34 pm 18:34 Mostly Cloudy with Thunderstorms 90 32.2 72 22.2 56 56 SSW 12 19 30.06 1018 10 16 0.00 0.00
6:53 pm 18:53 Mostly Cloudy with Thunderstorms 88 31.1 71 21.7 57 57 SSE 9 15 30.10 1019 10 16 0.00 0.00
7:53 pm 19:53 Cloudy with Thunderstorms 81 27.2 68 20 65 65 ESE 8 13 30.16 1021 10 16 0.00 0.00
8:39 pm 20:39 Cloudy with Strong Thunderstorms 77 25 68 20 74 74 SW 12 19 30.15 1021 2 3 0.11 2.79
8:53 pm 20:53 Cloudy with Strong Thunderstorms 74 23.3 69 20.6 85 85 VRB 6 9 30.16 1021 5 8 0.24 6.10
8:57 pm 20:57 Cloudy with Rain 73 23 70 21 89 89 W 6 9 30.15 1021 3 5 0.00 0.00
9:10 pm 21:10 Mostly Cloudy with Nearby Thunderstorms 73 23 70 21 89 89 Calm 30.15 1021 10 16 0.00 0.00
9:24 pm 21:24 Mostly Cloudy 75 23.9 69 20.6 82 82 VRB 3 6 30.15 1021 10 16 0.02 0.51
9:53 pm 21:53 Mostly Clear 74 23.3 71 21.7 91 91 NE 7 11 30.15 1021 10 16 0.02 0.51
10:05 pm 22:05 Clear with Nearby Thunderstorms 74 23.3 71 21.7 91 91 ENE 5 7 30.15 1021 10 16 0.00 0.00
10:25 pm 22:25 Clear 73 22.8 71 21.7 94 94 Calm 30.15 1021 10 16 0.00 0.00
10:53 pm 22:53 Clear 75 23.9 70 21.1 84 84 S 3 6 30.14 1021 10 16 0.00 0.00
11:53 pm 23:53 Clear 74 23.3 71 21.7 91 91 WNW 5 7 30.14 1021 10 16 0.00 0.00

Powered by AerisWeather